Dewpoint
18 15 20 21 19 16 17 19 19 18 19 19 23 25 21 22 23 24 24 21 21 21 19 21 25 19 20 23 27 33 36 35 39 42 44 48 48 50 52 58 56 60 64 65 66 67 67 67 67 67 69 69 70 71 71 74 75 75 75 75 75 74 74
21 21 19 21 22 19 16 16 19 20 18 18 23 19 24 22 21 24 20 19 23 22 21 25 25 21 19 21 22 29 36 35 35 40 45 48 47 48 53 60 59 62 64 64 65 65 66 67 67 68 70 69 70 70 71 73 74 75 74 74 74 74 74
17 19 19 18 21 22 17 15 19 17 18 18 22 23 20 19 22 25 23 21 21 24 26 23 25 23 21 24 26 26 28 32 36 38 42 47 47 47 51 53 60 63 61 63 66 65 65 67 69 68 68 68 69 70 71 71 73 73 73 72 73 73 73
12 14 17 19 19 21 21 18 16 18 19 18 20 21 24 25 22 24 22 21 23 24 26 24 25 27 26 20 22 23 23 28 33 37 37 41 45 47 48 51 54 61 60 58 64 64 64 66 67 67 67 67 68 69 70 71 72 73 74 73 73 73 73
11 12 13 12 16 17 16 16 16 18 21 20 17 18 19 22 25 24 24 20 24 25 22 23 27 28 28 24 23 26 24 25 27 31 32 36 41 45 48 50 54 59 59 60 63 64 64 65 67 67 66 67 67 68 69 70 72 71 71 71 72 73 73
14 13 14 14 14 16 17 15 16 17 21 23 19 19 18 18 22 25 24 23 28 21 20 20 21 26 25 26 25 23 23 20 29 29 30 32 35 44 48 49 52 54 60 62 62 60 65 64 65 66 66 66 66 67 68 69 70 70 70 70 72 73 73
12 14 13 12 12 14 16 17 16 19 21 25 23 20 20 19 19 21 25 24 27 30 28 26 22 22 21 25 22 22 20 24 22 24 23 29 37 41 43 48 50 53 55 58 60 63 62 64 65 65 66 66 66 67 67 68 69 70 69 69 70 73 72
24 24 23 22 16 14 20 24 21 23 18 17 22 22 23 22 23 22 22 26 24 27 34 30 25 28 23 28 23 26 21 22 25 25 26 32 35 41 44 48 47 52 55 60 64 62 65 64 66 66 65 66 66 66 66 67 68 68 68 68 69 72 71
22 18 20 20 21 20 20 20 23 23 24 18 18 24 26 24 22 21 23 23 22 28 32 31 26 25 21 22 20 23 25 25 23 27 29 30 41 42 40 46 49 53 53 55 64 64 67 66 64 66 66 66 65 66 66 66 67 68 68 68 68 70 70
17 17 15 15 17 18 19 20 18 22 22 23 20 19 26 24 31 35 32 25 28 26 34 32 32 29 31 26 24 23 27 33 27 30 29 35 37 46 45 47 48 47 53 59 65 68 68 64 63 66 67 66 65 65 66 66 66 67 66 67 67 69 69
21 21 33 32 32 30 27 28 22 22 24 22 24 22 22 23 29 31 33 33 30 28 26 29 30 31 30 24 25 36 38 35 39 49 47 41 38 45 44 49 48 56 62 66 67 69 63 62 62 64 65 65 65 67 67 65 66 66 67 67 68 69 69
27 26 27 27 28 28 28 27 27 28 28 28 31 27 21 30 26 27 33 37 30 32 30 33 40 37 34 39 41 43 47 47 44 48 53 51 42 41 46 49 51 54 63 65 67 67 64 63 63 63 64 64 65 66 66 66 65 65 66 66 68 69 70
18 19 20 21 24 22 24 25 26 26 28 28 28 30 26 31 27 27 34 37 34 33 39 47 50 54 48 49 51 50 52 53 54 56 52 42 41 48 50 57 60 61 58 66 67 65 65 64 63 63 63 64 66 67 67 67 65 65 67 67 68 68 70
14 15 14 15 16 18 20 23 25 26 27 27 27 27 25 26 34 32 31 37 32 35 46 47 49 50 49 49 52 54 55 56 59 56 54 55 56 51 51 55 53 60 60 64 67 68 69 65 65 62 64 66 64 65 66 65 66 65 67 67 68 68 69
17 15 14 15 16 17 17 20 23 25 26 26 27 26 27 29 28 28 30 35 34 44 51 51 50 50 46 49 50 55 58 57 56 58 57 59 61 60 62 64 64 64 60 62 66 69 69 68 66 64 64 66 65 63 65 65 66 65 65 68 68 68 70
19 17 15 14 16 18 18 19 21 23 24 26 26 28 28 29 31 31 30 32 34 43 51 48 50 49 47 48 54 55 59 57 57 56 56 57 60 61 62 63 66 66 64 62 63 66 66 65 65 64 66 65 64 63 64 65 64 64 65 67 68 70 70
19 18 18 15 15 17 16 18 19 23 25 27 27 28 29 29 27 28 30 33 42 50 51 50 48 46 49 53 57 58 58 60 58 58 57 57 57 59 61 62 63 64 63 64 65 62 65 66 64 63 64 63 65 65 66 65 66 64 65 66 69 71 70
19 18 18 18 21 20 17 17 17 20 22 26 26 26 27 28 29 34 36 39 44 49 49 49 51 50 50 52 55 57 57 57 58 56 56 57 57 58 59 61 61 64 67 68 69 69 67 66 64 63 65 64 65 64 64 66 66 67 68 68 70 70 72
20 21 22 19 19 19 25 19 25 35 43 38 25 29 28 30 35 36 40 43 46 49 48 49 50 52 52 51 56 54 53 55 54 55 55 56 56 58 59 61 61 64 67 68 69 69 66 65 65 65 63 63 65 64 64 65 66 71 69 70 71 71 72
23 21 18 18 17 24 30 34 44 44 42 42 43 34 27 35 38 43 44 44 46 48 47 47 50 51 51 50 57 53 51 52 52 52 53 53 55 56 58 60 61 64 64 67 67 68 69 68 61 62 61 62 62 63 62 64 66 67 70 72 70 72 72
21 20 18 19 24 24 30 34 43 41 41 42 42 42 43 44 44 44 45 46 46 46 46 47 48 50 50 49 57 50 50 50 50 50 52 52 54 55 57 57 59 63 66 67 67 69 68 66 63 60 62 61 61 62 63 63 67 66 68 70 70 72 73
23 21 18 19 18 19 26 42 43 42 43 41 43 45 44 44 42 43 44 45 46 46 47 48 49 50 49 47 47 50 48 48 49 49 51 51 53 53 55 57 58 62 65 67 67 67 68 66 63 60 62 62 63 65 64 64 65 66 67 68 70 72 72
22 21 20 20 21 24 40 41 41 40 40 44 44 42 42 47 44 44 44 43 45 46 46 47 51 50 44 42 51 48 48 47 49 48 50 50 51 53 54 55 57 61 65 68 68 67 68 66 62 60 62 63 62 65 66 64 66 67 67 68 70 72 72
25 22 21 21 25 23 40 41 40 38 40 45 45 38 38 45 48 44 44 43 43 45 47 48 50 50 48 50 48 47 46 47 48 50 49 50 51 52 53 55 58 61 65 68 69 67 66 66 62 60 62 64 65 65 65 64 65 66 68 69 71 73 73
24 23 21 23 26 41 41 40 39 40 45 43 38 34 40 46 46 44 43 43 42 44 45 47 48 50 48 48 48 46 46 46 48 48 48 49 50 52 53 54 60 59 63 66 66 66 67 67 61 59 63 63 65 68 67 67 66 66 68 70 72 74 74
21 21 19 20 23 41 40 40 40 43 41 38 37 41 44 46 45 43 42 42 43 43 44 45 46 46 46 48 46 45 45 46 48 47 47 48 50 52 54 56 57 58 59 65 69 66 67 64 62 63 66 67 70 70 67 66 67 67 69 71 72 74 74
26 26 22 23 22 38 40 41 38 42 37 38 41 43 43 45 44 44 42 43 43 43 42 43 44 45 44 45 45 46 46 45 46 47 47 48 49 51 53 54 54 55 59 64 68 70 63 62 63 63 62 69 69 70 68 70 68 69 70 71 73 74 75
29 23 24 26 35 37 40 41 37 41 43 44 44 44 42 43 44 44 43 42 42 42 43 42 44 45 45 46 46 46 45 44 45 47 48 48 48 50 52 52 53 55 60 66 70 70 70 65 64 64 66 71 71 70 71 72 70 70 71 73 74 74 74
34 30 36 39 39 38 39 44 42 42 42 42 42 44 44 43 43 44 43 43 43 43 43 44 44 44 45 46 45 45 44 44 44 46 48 48 48 50 52 52 54 55 59 64 69 70 69 68 66 68 68 70 72 71 72 74 74 72 72 73 74 74 73
39 40 40 41 38 37 38 40 42 41 41 41 42 43 42 43 44 46 43 44 43 43 43 44 45 45 46 47 45 45 44 44 46 48 48 48 49 51 53 53 54 56 58 64 69 69 72 69 67 72 69 69 72 72 72 74 74 74 74 75 75 75 75
35 32 40 39 37 37 39 43 43 41 41 41 42 43 43 43 44 45 45 44 45 44 44 45 45 44 45 47 48 48 46 45 47 47 48 49 50 52 53 54 56 56 59 65 71 71 71 70 67 66 70 71 73 75 75 73 73 75 75 75 75 75 75
36 35 38 37 37 38 42 41 39 39 40 41 41 42 43 43 44 45 45 44 45 46 44 45 45 44 45 46 48 48 48 47 47 48 49 49 52 52 53 56 56 57 59 64 71 72 73 72 74 70 71 72 74 74 74 73 72 74 75 75 75 75 74
34 35 35 37 37 41 42 40 39 41 41 40 41 42 42 42 43 44 43 44 44 45 45 45 46 46 46 46 46 48 48 49 48 48 49 50 52 53 53 56 56 57 59 63 70 71 71 72 75 76 75 74 75 75 75 74 75 75 75 75 75 75 73
30 33 35 39 33 33 35 37 40 41 40 41 42 42 42 42 43 44 45 44 44 45 46 46 46 46 48 48 47 49 50 51 51 50 50 50 51 52 53 57 57 57 59 62 69 72 73 73 74 74 75 76 76 73 74 73 75 76 76 76 76 75 74
31 36 39 39 40 39 38 39 41 41 41 42 42 41 42 43 43 45 45 44 44 45 46 47 47 47 48 49 48 48 51 52 52 51 51 51 50 52 53 56 56 56 58 61 69 71 72 73 73 73 73 74 75 73 74 74 75 76 76 75 74 73 74
36 36 37 40 42 39 39 41 41 40 42 41 41 42 43 43 43 44 45 44 44 45 46 47 47 48 48 49 50 49 51 51 53 52 53 52 50 52 53 55 56 56 57 60 68 70 71 71 72 72 72 73 74 73 74 74 74 75 75 74 73 72 72
35 36 38 39 39 40 41 41 40 41 42 42 41 42 43 43 44 44 45 45 45 45 46 47 48 48 48 48 50 51 51 52 54 54 54 54 52 52 53 55 56 56 57 61 68 70 70 70 70 71 70 71 73 73 74 75 74 75 75 73 70 70 71